CW5532 Weather Reports


Display with metric or nautical units.
time (UTC)temp
F
wind
direction
speed
MPH
gust
MPH
rain 1hr
in
rain 24hr
in
rain mn
in
humidity
%
barometer
mb
20260510183716 60 261 0.0 0.0 0.00 0.00 0.00 80 1009.9
20260510183216 61 251 0.0 0.0 0.00 0.00 0.00 80 1009.8
20260510173716 61 256 1.0 10.0 0.00 0.01 0.00 78 1009.3
20260510173217 61 279 6.0 31.0 0.00 0.01 0.00 78 1009.1
20260510170216 69 223 4.0 16.0 0.00 0.03 0.00 55 1008.0
20260510160216 75 136 0.0 13.0 0.00 0.23 0.00 49 1007.3
20260510150716 74 250 1.0 12.0 0.00 0.38 0.00 43 1007.6
20260510150216 74 245 4.0 18.0 0.00 0.38 0.00 42 1007.7
20260510140716 74 294 5.0 15.0 0.00 0.39 0.00 45 1008.5
20260510133216 73 266 9.0 20.0 0.00 0.39 0.00 45 1008.8
20260510130716 73 283 7.0 18.0 0.00 0.39 0.00 47 1009.1
20260510130216 72 291 6.0 21.0 0.00 0.39 0.00 48 1009.3
20260510120216 71 251 5.0 16.0 0.00 0.39 0.00 54 1009.9
20260510113216 69 277 11.0 20.0 0.00 0.39 0.00 55 1010.2
20260510110715 69 266 11.0 20.0 0.00 0.39 0.00 56 1010.5
20260510103715 68 249 8.0 20.0 0.00 0.39 0.00 59 1010.5
20260510103215 68 250 9.0 20.0 0.00 0.39 0.00 60 1010.4
20260510100716 66 228 6.0 13.0 0.00 0.39 0.00 70 1010.6
20260510100216 66 271 7.0 21.0 0.00 0.39 0.00 71 1010.6
20260510093715 61 231 6.0 13.0 0.00 0.39 0.00 82 1010.9
20260510083716 58 74 0.0 0.0 0.00 0.39 0.00 83 1011.3
20260510083216 58 75 0.0 0.0 0.00 0.39 0.00 83 1011.3
20260510080715 55 76 0.0 0.0 0.00 0.39 0.00 83 1011.4
20260510073215 52 78 0.0 0.0 0.00 0.39 0.00 83 1011.6
20260510070716 51 76 1.0 2.0 0.00 0.39 0.00 83 1011.6
20260510070216 51 67 0.0 3.0 0.00 0.39 0.00 84 1011.6
20260510063715 50 33 0.0 0.0 0.00 0.39 0.00 84 1011.4
20260510060715 49 255 0.0 1.0 0.00 0.39 0.00 84 1011.5
20260510050715 45 251 0.0 0.0 0.00 0.39 0.00 84 1011.9
20260510043715 46 246 0.0 0.0 0.00 0.39 0.00 84 1011.5
20260510030714 47 219 0.0 0.0 0.00 0.39 0.00 84 1011.6
20260510030214 47 219 0.0 0.0 0.00 0.39 0.00 84 1011.6
20260510023714 48 219 0.0 0.0 0.00 0.39 0.00 84 1011.5
20260510023214 48 219 0.0 0.0 0.00 0.39 0.00 84 1011.6
20260510020715 49 219 0.0 0.0 0.00 0.39 0.00 84 1011.8
20260510013715 50 227 0.0 0.0 0.00 0.39 0.00 84 1011.4
20260510010715 50 236 0.0 0.0 0.00 0.39 0.00 84 1011.4
20260510010215 50 236 0.0 0.0 0.00 0.39 0.00 84 1011.4
20260510003714 51 236 0.0 0.0 0.00 0.39 0.00 84 1011.7
20260510003214 51 236 0.0 0.0 0.00 0.39 0.00 84 1011.7
20260510000715 52 236 0.0 0.0 0.00 0.39 0.00 84 1011.7
20260509233715 54 236 0.0 0.0 0.00 0.39 0.00 84 1011.7
20260509220715 55 236 0.0 0.0 0.00 0.39 0.00 84 1011.8
20260509203714 55 236 0.0 0.0 0.00 0.39 0.39 84 1011.4
20260509200214 55 236 0.0 0.0 0.00 0.39 0.39 84 1010.8
20260509193214 56 236 0.0 0.0 0.00 0.39 0.39 84 1010.5
20260509190714 56 247 0.0 0.0 0.01 0.39 0.39 84 1010.3